Location: Chaumontel
(49.1247°N, 2.4324°E)
Time: 14:16:31
(UTC+00:00)

COSMOS 2428 - Pass Details

Date: 03 August 2024
Orbit: 842 x 857 km, 70.9° (Epoch: 14 September)

Event Time Altitude Azimuth Distance (km) Brightness Sun altitude
Exits shadow 01:53:14 - 146° (SE) 3,067 5.4 -18.6°
Reaches altitude 10° 01:55:43 10° 128° (SE) 2,464 5.0 -18.4°
Maximum altitude 01:58:38 14° 97° (E) 2,171 5.1 -18.2°
Drops below altitude 10° 02:01:32 10° 66° (ENE) 2,478 6.0 -17.9°
Sets 02:05:08 0° 43° (NE) 3,423 7.5 -17.6°
